Weather History for KALM - February, 2014

Change the Weather History Date:

Saturday, February 1, 2014

  Actual Average Record
Temperature  
Mean Temperature 52 °F -  
Max Temperature 59 °F 57 °F 79 °F (1963)
Min Temperature 46 °F 31 °F 13 °F (1985)
Degree Days  
Heating Degree Days 12    
Growing Degree Days 2 (Base 50)    
Moisture  
Dew Point 28 °F    
Average Humidity 37    
Maximum Humidity 54    
Minimum Humidity 25    
Precipitation  
Precipitation 0.00 in - - ()
Sea Level Pressure  
Sea Level Pressure 29.86 in    
Wind  
Wind Speed 7 mph (West)    
Max Wind Speed 18 mph    
Max Gust Speed 25 mph    
Visibility 10 miles    
Events      
Averages and records for this station are not official NWS values.
T = Trace of Precipitation, MM = Missing Value Source: NWS Daily Summary

Daily Weather History Graph

Daily Weather History Graph

Search for Another Location

Airport or City:

Trip Planner

Search our weather history database for the weather conditions in past years. The results will help you decide how hot, cold, wet, or windy it might be!

Date:

Astronomy

Feb. 01, 2014 Rise Set
Actual Time 6:58 AM MST 5:36 PM MST
Civil Twilight 6:33 AM MST 6:02 PM MST
Nautical Twilight 6:03 AM MST 6:32 PM MST
Astronomical Twilight 5:34 AM MST 7:01 PM MST
Moon 7:59 AM MST (2/1) 8:03 PM MST (2/1)
Length of Visible Light 11h 29m
Length of Day
10h 37m
Waxing Crescent, 5% of the Moon is Illuminated
Feb 1
Waxing Crescent
Feb 6
First Quarter
Feb 14
Full
Feb 22
Last Quarter
Mar 1
New

Hourly Weather History & Observations

Time (MST) Temp. Dew Point Humidity Pressure Visibility Wind Dir Wind Speed Gust Speed Precip Events Conditions
12:15 AM 55.4 °F 26.6 °F 33% 29.82 in 10.0 mi North - - N/A   Partly Cloudy
12:35 AM 57.2 °F 26.6 °F 31% 29.82 in 10.0 mi North - - N/A   Clear
12:55 AM 53.6 °F 26.6 °F 35% 29.81 in 10.0 mi North - - N/A   Clear
1:15 AM 57.2 °F 26.6 °F 31% 29.82 in 10.0 mi North - - N/A   Clear
1:35 AM 57.2 °F 26.6 °F 31% 29.82 in 10.0 mi North - - N/A   Clear
1:55 AM 53.6 °F 26.6 °F 35% 29.82 in 10.0 mi North - - N/A   Clear
2:15 AM 50.0 °F 26.6 °F 40% 29.81 in 10.0 mi North - - N/A   Clear
2:35 AM 53.6 °F 26.6 °F 35% 29.81 in 10.0 mi North - - N/A   Clear
2:55 AM 51.8 °F 26.6 °F 38% 29.82 in 10.0 mi North - - N/A   Scattered Clouds
3:15 AM 55.4 °F 26.6 °F 33% 29.82 in 10.0 mi North - - N/A   Scattered Clouds
3:35 AM 53.6 °F 26.6 °F 35% 29.82 in 10.0 mi North - - N/A   Scattered Clouds
3:55 AM 53.6 °F 26.6 °F 35% 29.82 in 10.0 mi North - - N/A   Scattered Clouds
4:15 AM 53.6 °F 28.4 °F 38% 29.82 in 10.0 mi North - - N/A   Partly Cloudy
4:35 AM 53.6 °F 28.4 °F 38% 29.83 in 10.0 mi North - - N/A   Clear
4:55 AM 53.6 °F 28.4 °F 38% 29.83 in 10.0 mi North - - N/A   Partly Cloudy
5:15 AM 53.6 °F 28.4 °F 38% 29.83 in 10.0 mi North - - N/A   Partly Cloudy
5:35 AM 51.8 °F 28.4 °F 41% 29.84 in 10.0 mi North - - N/A   Clear
5:55 AM 50.0 °F 28.4 °F 43% 29.84 in 10.0 mi North - - N/A   Clear
6:15 AM 46.4 °F 28.4 °F 50% 29.85 in 10.0 mi North - - N/A   Clear
6:35 AM 48.2 °F 28.4 °F 46% 29.85 in 10.0 mi North - - N/A   Partly Cloudy
6:55 AM 48.2 °F 28.4 °F 46% 29.85 in 10.0 mi SSE 3.5 mph - N/A   Scattered Clouds
7:15 AM 48.2 °F 28.4 °F 46% 29.86 in 10.0 mi SSE 3.5 mph - N/A   Partly Cloudy
7:35 AM 48.2 °F 28.4 °F 46% 29.87 in 10.0 mi Calm Calm - N/A   Partly Cloudy
7:55 AM 50.0 °F 30.2 °F 47% 29.87 in 10.0 mi Calm Calm - N/A   Partly Cloudy
8:15 AM 50.0 °F 30.2 °F 47% 29.87 in 10.0 mi WSW 8.1 mph - N/A   Partly Cloudy
8:35 AM 53.6 °F 32.0 °F 44% 29.87 in 10.0 mi WSW 10.4 mph - N/A   Clear
8:55 AM 53.6 °F 32.0 °F 44% 29.87 in 10.0 mi West 11.5 mph - N/A   Clear
9:15 AM 53.6 °F 32.0 °F 44% 29.88 in 10.0 mi West 10.4 mph - N/A   Clear
9:35 AM 55.4 °F 32.0 °F 41% 29.88 in 10.0 mi WSW 9.2 mph - N/A   Clear
9:55 AM 55.4 °F 32.0 °F 41% 29.89 in 10.0 mi West 9.2 mph - N/A   Clear
10:15 AM 55.4 °F 32.0 °F 41% 29.89 in 10.0 mi SW 8.1 mph - N/A   Clear
10:35 AM 57.2 °F 30.2 °F 36% 29.88 in 10.0 mi West 9.2 mph 16.1 mph N/A   Partly Cloudy
10:55 AM 57.2 °F 30.2 °F 36% 29.88 in 10.0 mi South 6.9 mph - N/A   Mostly Cloudy
11:15 AM 57.2 °F 30.2 °F 36% 29.87 in 10.0 mi SSW 10.4 mph - N/A   Mostly Cloudy
11:35 AM 57.2 °F 28.4 °F 33% 29.87 in 10.0 mi SW 11.5 mph 18.4 mph N/A   Mostly Cloudy
11:55 AM 57.2 °F 28.4 °F 33% 29.86 in 10.0 mi SW 11.5 mph - N/A   Mostly Cloudy
12:15 PM 57.2 °F 28.4 °F 33% 29.85 in 10.0 mi SSW 8.1 mph - N/A   Mostly Cloudy
12:35 PM 57.2 °F 28.4 °F 33% 29.85 in 10.0 mi West 15.0 mph - N/A   Scattered Clouds
12:55 PM 57.2 °F 28.4 °F 33% 29.84 in 10.0 mi WSW 10.4 mph 19.6 mph N/A   Partly Cloudy
1:15 PM 57.2 °F 28.4 °F 33% 29.83 in 10.0 mi South 4.6 mph - N/A   Partly Cloudy
1:35 PM 59.0 °F 26.6 °F 29% 29.83 in 10.0 mi WSW 18.4 mph 25.3 mph N/A   Mostly Cloudy
1:55 PM 59.0 °F 26.6 °F 29% 29.83 in 10.0 mi West 8.1 mph 19.6 mph N/A   Scattered Clouds
2:15 PM 59.0 °F 26.6 °F 29% 29.83 in 10.0 mi WSW 3.5 mph 17.3 mph N/A   Scattered Clouds
2:35 PM 59.0 °F 26.6 °F 29% 29.83 in 10.0 mi West 10.4 mph 19.6 mph N/A   Scattered Clouds
2:55 PM 59.0 °F 26.6 °F 29% 29.83 in 10.0 mi WSW 17.3 mph 25.3 mph N/A   Mostly Cloudy
3:15 PM 59.0 °F 26.6 °F 29% 29.83 in 10.0 mi West 10.4 mph 24.2 mph N/A   Mostly Cloudy
3:35 PM 59.0 °F 26.6 °F 29% 29.83 in 10.0 mi WNW 9.2 mph 24.2 mph N/A   Scattered Clouds
3:55 PM 59.0 °F 26.6 °F 29% 29.83 in 10.0 mi WSW 6.9 mph - N/A   Mostly Cloudy
4:15 PM 59.0 °F 24.8 °F 27% 29.83 in 10.0 mi WSW 9.2 mph 18.4 mph N/A   Scattered Clouds
4:35 PM 59.0 °F 23.0 °F 25% 29.84 in 10.0 mi SW 15.0 mph 23.0 mph N/A   Clear
4:55 PM 59.0 °F 23.0 °F 25% 29.85 in 10.0 mi WSW 10.4 mph 18.4 mph N/A   Clear
5:15 PM 57.2 °F 23.0 °F 27% 29.85 in 10.0 mi WSW 4.6 mph - N/A   Clear
5:35 PM 55.4 °F 23.0 °F 29% 29.86 in 10.0 mi Calm Calm - N/A   Clear
5:55 PM 53.6 °F 23.0 °F 30% 29.86 in 10.0 mi WNW 3.5 mph - N/A   Clear
6:15 PM 53.6 °F 24.8 °F 33% 29.86 in 10.0 mi NW 3.5 mph - N/A   Partly Cloudy
6:35 PM 53.6 °F 24.8 °F 33% 29.87 in 10.0 mi NNW 3.5 mph - N/A   Partly Cloudy
6:55 PM 48.2 °F 23.0 °F 37% 29.87 in 10.0 mi North 5.8 mph - N/A   Partly Cloudy
7:15 PM 48.2 °F 23.0 °F 37% 29.88 in 10.0 mi NNE 5.8 mph - N/A   Mostly Cloudy
7:35 PM 50.0 °F 24.8 °F 37% 29.89 in 10.0 mi NNE 5.8 mph - N/A   Mostly Cloudy
7:55 PM 51.8 °F 24.8 °F 35% 29.89 in 10.0 mi NNE 5.8 mph - N/A   Mostly Cloudy
8:15 PM 53.6 °F 24.8 °F 33% 29.90 in 10.0 mi NE 6.9 mph - N/A   Mostly Cloudy
8:35 PM 53.6 °F 24.8 °F 33% 29.91 in 10.0 mi NE 6.9 mph - N/A   Mostly Cloudy
8:55 PM 53.6 °F 24.8 °F 33% 29.91 in 10.0 mi NNE 8.1 mph - N/A   Scattered Clouds
9:15 PM 53.6 °F 28.4 °F 38% 29.90 in 10.0 mi ENE 11.5 mph 25.3 mph N/A   Mostly Cloudy
9:35 PM 51.8 °F 28.4 °F 41% 29.91 in 10.0 mi NNE 11.5 mph - N/A   Mostly Cloudy
9:55 PM 51.8 °F 32.0 °F 47% 29.91 in 10.0 mi SSE 11.5 mph 19.6 mph N/A   Overcast
10:15 PM 50.0 °F 32.0 °F 50% 29.91 in 10.0 mi ENE 11.5 mph 17.3 mph N/A   Scattered Clouds
10:35 PM 50.0 °F 32.0 °F 50% 29.91 in 10.0 mi East 12.7 mph - N/A   Mostly Cloudy
10:55 PM 50.0 °F 30.2 °F 47% 29.91 in 10.0 mi East 3.5 mph - N/A   Scattered Clouds
11:15 PM 50.0 °F 32.0 °F 50% 29.91 in 10.0 mi ENE 5.8 mph - N/A   Scattered Clouds
11:35 PM 48.2 °F 32.0 °F 54% 29.91 in 10.0 mi NNE 4.6 mph - N/A   Partly Cloudy
11:55 PM 48.2 °F 30.2 °F 50% 29.91 in 10.0 mi NNW 5.8 mph - N/A   Clear